[[{"header":{"parameterUnit":"m.s-1","parameterCategory":1,"la1":30.2992,"la2":30.254,"lo1":-89.0895,"lo2":-89.0443,"dy":0.0025,"dx":0.0025,"nx":19,"ny":19,"refTime":"2026-03-19T09:00:00:Z","depth":0,"parameterNumber":2,"parameterNumberName":"U-component_of_WINDS"},"data":[0,0,0,1.2547,1.2549,1.2649,1.265,1.2768,1.2769,0,0,0,0,0,0,0,0,0,0,0,1.2514,1.2514,1.2547,1.255,1.2649,1.265,1.2768,1.2769,0,0,0,0,0,0,0,0,0,0,0,1.2513,1.2514,1.2515,1.255,1.2649,1.265,1.2768,1.2695,0,0,0,0,0,0,0,0,0,0,1.26,1.2565,1.2514,1.2515,1.2551,1.2649,1.265,1.2692,1.27,1.2719,0,1.2737,0,1.2755,1.2776,1.2777,0,0,0,1.2552,1.2558,1.2589,1.2515,1.2551,1.2649,1.2605,1.2696,1.2705,1.2729,1.2738,1.2743,1.2757,1.2777,1.2778,1.2882,1.2883,0,0,1.2547,1.2529,1.2583,1.2595,1.258,1.2602,1.2608,1.2702,1.271,1.2739,1.2746,1.2759,1.2778,1.2779,1.2882,1.2882,0,0,0,1.2529,1.2525,1.2554,1.259,1.2608,1.2605,1.2612,1.2706,1.2717,1.2747,1.276,1.2779,1.278,1.2882,1.2882,1.2882,0,0,0,1.2526,1.2515,1.2551,1.2541,1.2607,1.2659,1.2614,1.271,1.2721,1.2759,1.2779,1.2781,1.2881,1.2882,1.2881,1.2884,0,0,0,1.2509,1.2513,1.2526,1.254,1.2583,1.2658,1.2674,1.2713,1.2729,1.2777,1.2781,1.2881,1.2882,1.288,1.2883,1.2905,0,0,0,1.2484,1.2525,1.2526,1.2575,1.2582,1.2657,1.2674,1.2731,1.2772,1.2779,1.2881,1.2882,1.288,1.2882,1.2904,1.292,1.2925,0,0,1.2525,1.2529,1.256,1.2563,1.2634,1.2644,1.2714,1.2768,1.2789,1.2849,1.2852,1.2881,1.2883,1.2905,1.2962,1.2966,0,0,0,1.2566,1.2588,1.2611,1.2649,1.2692,1.2728,1.2774,1.2794,1.2846,1.2817,1.2896,1.2898,1.2912,1.292,1.2923,1.2935,1.2885,1.2885,1.2885,1.2597,1.2622,1.2673,1.2709,1.2747,1.2793,1.2824,1.2859,1.2873,1.2891,1.2909,1.2941,1.295,1.2952,1.2964,1.292,1.292,1.292,1.292,1.2658,1.2691,1.2709,1.2765,1.279,1.2836,1.2882,1.289,1.2936,1.293,1.2943,1.2933,1.2956,1.2968,1.292,1.292,1.292,1.292,1.292,1.268,1.27,1.2724,1.2781,1.2822,1.2857,1.2901,1.2922,1.2943,1.2956,1.2975,1.2976,1.2977,1.2964,1.2964,1.2964,1.2964,1.2964,1.2964,1.2692,1.2719,1.2754,1.2802,1.2829,1.2866,1.2913,1.2939,1.2974,1.2986,1.2986,1.2996,1.2954,1.2942,1.2966,1.2966,1.2966,1.2965,1.2965,1.2742,1.2734,1.2787,1.2814,1.2871,1.2909,1.2936,1.2988,1.3013,1.3033,1.3042,1.3008,1.3012,1.301,1.3,1.3037,1.3037,1.3037,1.3037,1.2759,1.2764,1.2822,1.2863,1.2906,1.2936,1.2992,1.3028,1.3063,1.308,1.3078,1.3067,1.3064,1.3071,1.3067,1.3058,1.3109,1.3109,1.3109,1.279,1.28,1.2845,1.288,1.2926,1.2965,1.3018,1.3063,1.3102,1.3112,1.3093,1.309,1.3073,1.3066,1.3075,1.3068,1.3052,0,0]},{"header":{"parameterUnit":"m.s-1","parameterCategory":1,"la1":30.2992,"la2":30.254,"lo1":-89.0895,"lo2":-89.0443,"dy":0.0025,"dx":0.0025,"nx":19,"ny":19,"refTime":"2026-03-19T09:00:00:Z","depth":0,"parameterNumber":3,"parameterNumberName":"V-component_of_WINDS"},"data":[0,0,0,0.0278,0.0279,0.0335,0.0335,0.0411,0.0412,0,0,0,0,0,0,0,0,0,0,0,0.0264,0.0265,0.0278,0.0279,0.0335,0.0335,0.0411,0.0412,0,0,0,0,0,0,0,0,0,0,0,0.0264,0.0265,0.0266,0.0279,0.0335,0.0335,0.0411,0.0367,0,0,0,0,0,0,0,0,0,0,0.0312,0.0303,0.0265,0.0266,0.028,0.0334,0.0335,0.0365,0.037,0.0388,0,0.0405,0,0.0409,0.0417,0.0417,0,0,0,0.0277,0.0299,0.0311,0.0266,0.028,0.0334,0.0309,0.0367,0.0373,0.0394,0.0406,0.0408,0.041,0.0417,0.0418,0.0528,0.0529,0,0,0.0274,0.0276,0.0307,0.0314,0.0306,0.0307,0.0311,0.0371,0.0383,0.0406,0.041,0.0412,0.0418,0.0419,0.0527,0.0528,0,0,0,0.0267,0.0274,0.0285,0.0311,0.0321,0.0309,0.0313,0.0381,0.0384,0.0411,0.0413,0.0418,0.0419,0.0527,0.0528,0.056,0,0,0,0.0265,0.027,0.0283,0.0285,0.032,0.0352,0.0322,0.038,0.0386,0.0412,0.0419,0.042,0.0526,0.0527,0.0557,0.0575,0,0,0,0.026,0.0269,0.0278,0.0285,0.0309,0.0351,0.0357,0.0381,0.0388,0.0417,0.042,0.0526,0.0527,0.0555,0.0572,0.0604,0,0,0,0.0255,0.0307,0.0279,0.0337,0.0309,0.037,0.0357,0.0402,0.0431,0.0419,0.0526,0.0528,0.0555,0.057,0.0602,0.0633,0.0646,0,0,0.0321,0.0315,0.0349,0.0325,0.0391,0.0361,0.0432,0.0457,0.0458,0.0505,0.0507,0.0558,0.0571,0.0604,0.0715,0.0726,0,0,0,0.037,0.0395,0.0412,0.0439,0.0459,0.0477,0.0491,0.05,0.0538,0.0483,0.0579,0.0586,0.0605,0.062,0.0629,0.0645,0.0534,0.0534,0.0534,0.0468,0.0466,0.0521,0.0525,0.0552,0.0564,0.0586,0.06,0.0591,0.0613,0.0627,0.0695,0.0712,0.0719,0.0735,0.0643,0.0643,0.0643,0.0643,0.0565,0.0599,0.0584,0.0632,0.0629,0.067,0.0683,0.0675,0.0712,0.0685,0.0701,0.0672,0.073,0.0744,0.0645,0.0645,0.0645,0.0644,0.0644,0.063,0.0645,0.0654,0.0693,0.0722,0.0724,0.076,0.0756,0.0753,0.0769,0.0783,0.0783,0.0782,0.0776,0.0776,0.0776,0.0776,0.0777,0.0777,0.0693,0.0702,0.0733,0.0757,0.0773,0.0794,0.0805,0.0821,0.0838,0.0832,0.0832,0.082,0.0736,0.0715,0.078,0.078,0.0779,0.0779,0.0779,0.0794,0.077,0.0818,0.0834,0.086,0.0889,0.0883,0.0915,0.0928,0.0945,0.0929,0.0867,0.086,0.0854,0.0836,0.093,0.0929,0.093,0.093,0.0849,0.0844,0.0891,0.0917,0.0942,0.094,0.0993,0.1002,0.1008,0.1015,0.1001,0.0977,0.097,0.0967,0.0958,0.0942,0.106,0.106,0.106,0.0911,0.0908,0.0955,0.0959,0.0978,0.0996,0.1045,0.1075,0.1077,0.1065,0.1021,0.1015,0.0977,0.0964,0.0954,0.0939,0.0909,0,0]}]]